Massena, NY

9:10 AM EDT on September 16, 2019 (GMT -0400)
Massena International-Richards

Weather History for KMSS - August, 2019

Change the Weather History Date:

Friday, August 23, 2019

  Actual Average Record
Temperature  
Mean Temperature 62 °F 66 °F  
Max Temperature 73 °F 77 °F 88 °F (1949)
Min Temperature 51 °F 54 °F 37 °F (1957)
Degree Days  
Heating Degree Days 3 2  
Month to date heating degree days 9 30  
Since 1 June heating degree days 107 149  
Since 1 July heating degree days 10 53  
Cooling Degree Days 0 3  
Month to date cooling degree days 83 83  
Year to date cooling degree days 376 317  
Since 1 June cooling degree days 375 303  
Growing Degree Days 12 (Base 50)    
Moisture  
Dew Point 51 °F    
Average Humidity 70    
Maximum Humidity 93    
Minimum Humidity 47    
Precipitation  
Precipitation 0.00 in 0.11 in 1.60 in (1984)
Month to date precipitation 2.60 2.66  
Year to date precipitation 18.78 21.68  
Sea Level Pressure  
Sea Level Pressure 30.06 in    
Wind  
Wind Speed 7 mph (NW)    
Max Wind Speed 16 mph    
Max Gust Speed 21 mph    
Visibility 10 miles    
Events      
T = Trace of Precipitation, MM = Missing Value Source: NWS Daily Summary

Daily Weather History Graph

Daily Weather History Graph

Search for Another Location

Airport or City:

Astronomy

Aug. 23, 2019 Rise Set
Actual Time 6:10 AM EDT 7:52 PM EDT
Civil Twilight 5:39 AM EDT 8:23 PM EDT
Nautical Twilight 5:01 AM EDT 9:01 PM EDT
Astronomical Twilight 4:20 AM EDT 9:42 PM EDT
Moon 11:57 PM EDT (8/23) 2:04 PM EDT (8/23)
Length of Visible Light 14h 44m
Length of Day
13h 42m
Waning Gibbous, 50% of the Moon is Illuminated
Aug 23
Waning Gibbous
Aug 30
New
Sep 5
First Quarter
Sep 14
Full
Sep 21
Last Quarter

Hourly Weather History & Observations

Time (EDT) Temp. Dew Point Humidity Pressure Visibility Wind Dir Wind Speed Gust Speed Precip Events Conditions
12:53 AM 62.1 °F 53.1 °F 72% 29.95 in 10.0 mi NW 6.9 mph - N/A   Overcast
1:53 AM 60.1 °F 52.0 °F 75% 29.96 in 10.0 mi WNW 6.9 mph - N/A   Scattered Clouds
2:53 AM 57.9 °F 52.0 °F 81% 29.97 in 10.0 mi WNW 5.8 mph - N/A   Clear
3:53 AM 54.0 °F 51.1 °F 90% 29.97 in 10.0 mi SSW 3.5 mph - N/A   Clear
4:53 AM 57.0 °F 52.0 °F 83% 29.99 in 10.0 mi West 4.6 mph - N/A   Clear
5:53 AM 55.0 °F 51.1 °F 86% 30.01 in 10.0 mi West 3.5 mph - N/A   Clear
6:53 AM 53.1 °F 51.1 °F 93% 30.04 in 10.0 mi South 3.5 mph - N/A   Clear
7:53 AM 60.1 °F 53.1 °F 78% 30.06 in 10.0 mi WNW 5.8 mph - N/A   Clear
8:53 AM 62.1 °F 53.1 °F 72% 30.07 in 10.0 mi NW 8.1 mph - N/A   Clear
9:53 AM 64.0 °F 53.1 °F 67% 30.07 in 10.0 mi Variable 5.8 mph - N/A   Clear
10:53 AM 66.9 °F 53.1 °F 61% 30.08 in 10.0 mi West 8.1 mph - N/A   Clear
11:53 AM 69.1 °F 52.0 °F 54% 30.07 in 10.0 mi NW 6.9 mph - N/A   Partly Cloudy
12:53 PM 68.0 °F 50.0 °F 52% 30.06 in 10.0 mi NW 9.2 mph - N/A   Mostly Cloudy
1:53 PM 70.0 °F 51.1 °F 51% 30.06 in 10.0 mi NW 11.5 mph - N/A   Mostly Cloudy
2:53 PM 72.0 °F 50.0 °F 46% 30.07 in 10.0 mi NW 6.9 mph 18.4 mph N/A   Mostly Cloudy
3:53 PM 70.0 °F 48.9 °F 47% 30.07 in 10.0 mi NW 8.1 mph - N/A   Mostly Cloudy
4:53 PM 70.0 °F 50.0 °F 49% 30.09 in 10.0 mi North 10.4 mph - N/A   Overcast
5:53 PM 69.1 °F 48.0 °F 47% 30.09 in 10.0 mi NW 9.2 mph - N/A   Mostly Cloudy
6:53 PM 66.9 °F 48.0 °F 51% 30.10 in 10.0 mi NW 4.6 mph - N/A   Clear
7:53 PM 64.0 °F 46.9 °F 54% 30.11 in 10.0 mi NNW 5.8 mph - N/A   Partly Cloudy
8:53 PM 57.0 °F 50.0 °F 77% 30.13 in 10.0 mi WNW 4.6 mph - N/A   Clear
9:53 PM 61.0 °F 48.0 °F 62% 30.13 in 10.0 mi NNW 5.8 mph - N/A   Partly Cloudy
10:53 PM 62.1 °F 48.0 °F 60% 30.14 in 10.0 mi North 8.1 mph - N/A   Scattered Clouds
11:53 PM 60.1 °F 48.9 °F 67% 30.15 in 10.0 mi NNW 6.9 mph - N/A   Clear